STARLINK-5231 (54182 NORAD) Tracking and Keplerian Element Data

This shows tracking and keplerian element data for the satellite.

Feedback or suggestion? Click here.




ElementValue
Catalog54182
NameSTARLINK-5231
Epoch Orbit402
Epoch Day324.91667824
Epoch Year2022
RAAN25.7421
Inclination53.2171
Eccentricity0.0003126
Argument of Perigee9.3823
Mean Anonmoly290.9051
Mean Motion15.73162279
Decay Rate0.00031879
L11 54182U 22141AB 22324.91667824 .00031879 00000+0 23103-3 0 9995
L22 54182 53.2171 25.7421 0003126 9.3823 290.9051 15.73162279 4024



Live tracking and technical data element details for STARLINK-5231 (NORAD 54182). STARLINK-5231 can be tracked NOW for your location showing map with azimuth and elevation plus other details from your city location.







IsCatalogInMostPopularTable: catalog: 54182, numindb: 7
Update: records affected: 1



GetName: 54182 STARLINK-5231

Hit Count: updated at: Fri, 09 Dec 2022 19:34:41 GMT